Location: Monfort
(47.1967°N, 0.2115°W)
Time: 04:09:54
(UTC+00:00)

Cosmos 1689 Rocket - Pass Details

Date: 24 October 2020
Orbit: 360 x 374 km, 97.5° (Epoch: 01 December)

Event Time Altitude Azimuth Distance (km) Brightness Sun altitude
Rises 18:39:06 0° 5° (N) 2,218 5.9 -18.0°
Reaches altitude 10° 18:41:08 10° 356° (N) 1,361 4.9 -18.4°
Maximum altitude 18:43:48 35° 288° (WNW) 616 3.7 -18.8°
Drops below altitude 10° 18:46:26 10° 221° (SW) 1,344 5.3 -19.3°
Sets 18:48:26 0° 212° (SSW) 2,184 6.3 -19.6°
